ITY621 LIRF-KLAX

Flight info

Callsign ITY621
Flight time N/A
Altitude 34000
Route PODOX DCT TOBGA DCT DOBIM DCT PIGOS DCT BARSO DCT OKTET DCT GIPNO DCT BULOL DCT IDAVO/N0492F360 DCT BAGBI DCT SIZZA DCT LAULY DCT BRY DCT CLM DCT KOPOR DCT VESAN DCT RATUK DCT SOVAT DCT LESTA UP6 RODOL UM65 TENSO L603 BELOX DCT LUTOV DCT PIKIL/M085F370 DCT 5630N02000W 5730N03000W 5830N04000W 5930N05000W DCT URTAK/N0495F380 DCT LAKES DCT 57N070W 55N080W/N0494F400 5230N09000W DCT KP18A DCT KU06W DCT KD87U DCT KU54O DCT NORRA J107 BLD DCT HAKMN ANJLL4
Aircraft A359/H-SDE2E3GHIJ3J4J5LM1ORWXY/LB1D1

Departure

Time N/A
Airport Rome–Fiumicino Leonardo da Vinci International Airport (LIRF)

Arrival

Time 2026-05-07 10:40
Airport Los Angeles International Airport (KLAX)
Time Latitude Longitude Altitude Speed Heading
2026-05-07 10:13 35.14299 -115.54783 40083 ft 491 kts 236°
2026-05-07 10:13 35.10657 -115.60117 40082 ft 494 kts 229°
2026-05-07 10:14 35.05896 -115.66210 40071 ft 496 kts 229°
2026-05-07 10:14 35.01119 -115.72296 40071 ft 497 kts 229°
2026-05-07 10:15 34.96339 -115.78385 40056 ft 497 kts 229°
2026-05-07 10:15 34.91559 -115.84466 40043 ft 497 kts 229°
2026-05-07 10:16 34.86775 -115.90542 39770 ft 498 kts 229°
2026-05-07 10:16 34.84363 -115.93602 39536 ft 501 kts 229°
2026-05-07 10:16 34.81947 -115.96666 39289 ft 502 kts 229°
2026-05-07 10:16 34.79529 -115.99728 39049 ft 504 kts 229°
2026-05-07 10:17 34.77097 -116.02807 38657 ft 502 kts 229°
2026-05-07 10:17 34.74685 -116.05881 37970 ft 502 kts 229°
2026-05-07 10:17 34.72273 -116.08954 37302 ft 502 kts 229°
2026-05-07 10:17 34.69896 -116.11982 36620 ft 502 kts 229°
2026-05-07 10:18 34.67481 -116.15055 35927 ft 503 kts 229°
2026-05-07 10:18 34.65060 -116.18132 35247 ft 504 kts 229°
2026-05-07 10:18 34.62641 -116.21204 34705 ft 501 kts 229°
2026-05-07 10:18 34.60236 -116.24253 34164 ft 498 kts 229°
2026-05-07 10:19 34.57844 -116.27285 33556 ft 496 kts 229°
2026-05-07 10:19 34.55467 -116.30295 32991 ft 492 kts 229°
2026-05-07 10:19 34.53107 -116.33280 32458 ft 489 kts 228°
2026-05-07 10:19 34.50761 -116.36247 31905 ft 486 kts 228°
2026-05-07 10:20 34.48457 -116.39156 31372 ft 483 kts 228°
2026-05-07 10:20 34.46740 -116.41325 30972 ft 481 kts 228°
2026-05-07 10:20 34.44468 -116.44190 30448 ft 479 kts 227°
2026-05-07 10:20 34.42270 -116.47199 29842 ft 475 kts 234°
2026-05-07 10:21 34.40516 -116.50550 29281 ft 468 kts 244°
2026-05-07 10:21 34.39039 -116.54043 28717 ft 464 kts 246°
2026-05-07 10:21 34.37612 -116.57534 28176 ft 460 kts 246°
2026-05-07 10:21 34.36198 -116.60990 27632 ft 457 kts 246°
2026-05-07 10:22 34.34791 -116.64417 27257 ft 450 kts 246°
2026-05-07 10:22 34.33401 -116.67791 26778 ft 447 kts 246°
2026-05-07 10:22 34.32032 -116.71162 26228 ft 445 kts 246°
2026-05-07 10:22 34.30690 -116.74517 25739 ft 442 kts 246°
2026-05-07 10:23 34.29355 -116.77851 25263 ft 439 kts 246°
2026-05-07 10:23 34.28028 -116.81157 24787 ft 436 kts 246°
2026-05-07 10:23 34.26705 -116.84445 24288 ft 433 kts 246°
2026-05-07 10:23 34.25397 -116.87687 23668 ft 427 kts 246°
2026-05-07 10:24 34.24098 -116.90904 22887 ft 423 kts 246°
2026-05-07 10:24 34.22820 -116.94066 22218 ft 416 kts 246°
2026-05-07 10:24 34.21567 -116.97188 21604 ft 412 kts 247°
2026-05-07 10:24 34.20533 -117.00397 21054 ft 408 kts 253°
2026-05-07 10:25 34.19649 -117.03632 20518 ft 405 kts 254°
2026-05-07 10:25 34.18783 -117.06865 19976 ft 402 kts 254°
2026-05-07 10:25 34.17923 -117.10067 19443 ft 400 kts 254°
2026-05-07 10:25 34.17066 -117.13249 18941 ft 398 kts 254°
2026-05-07 10:26 34.16219 -117.16379 18420 ft 396 kts 254°
2026-05-07 10:26 34.15346 -117.19570 17927 ft 393 kts 253°
2026-05-07 10:26 34.14486 -117.22692 17350 ft 390 kts 253°
2026-05-07 10:26 34.13633 -117.25787 16830 ft 387 kts 253°
2026-05-07 10:27 34.12797 -117.28818 16305 ft 384 kts 253°
2026-05-07 10:27 34.11944 -117.31907 15792 ft 381 kts 252°
2026-05-07 10:27 34.11120 -117.34893 15287 ft 378 kts 252°
2026-05-07 10:27 34.10293 -117.37889 14790 ft 376 kts 252°
2026-05-07 10:28 34.09525 -117.40890 14283 ft 373 kts 254°
2026-05-07 10:28 34.08789 -117.43884 13777 ft 370 kts 254°
2026-05-07 10:28 34.08058 -117.46844 13310 ft 365 kts 253°
2026-05-07 10:28 34.07306 -117.49733 12980 ft 356 kts 250°
2026-05-07 10:29 34.06386 -117.52486 12499 ft 353 kts 247°
2026-05-07 10:29 34.05413 -117.55189 12026 ft 349 kts 246°
2026-05-07 10:29 34.04448 -117.57854 11623 ft 344 kts 246°
2026-05-07 10:30 34.02561 -117.63080 10782 ft 336 kts 246°
2026-05-07 10:30 34.01629 -117.65659 10374 ft 334 kts 246°
2026-05-07 10:30 34.00795 -117.68247 10082 ft 327 kts 256°
2026-05-07 10:30 34.00406 -117.70885 9891 ft 314 kts 264°
2026-05-07 10:31 34.00159 -117.73469 9629 ft 308 kts 265°
2026-05-07 10:31 33.99923 -117.76028 9264 ft 306 kts 265°
2026-05-07 10:31 33.99684 -117.78570 8914 ft 304 kts 264°
2026-05-07 10:31 33.99439 -117.81091 8570 ft 301 kts 264°
2026-05-07 10:32 33.99197 -117.83589 8235 ft 299 kts 264°
2026-05-07 10:32 33.98958 -117.86068 7898 ft 296 kts 264°
2026-05-07 10:32 33.98718 -117.88521 7573 ft 294 kts 264°
2026-05-07 10:32 33.98493 -117.90953 7245 ft 291 kts 265°
2026-05-07 10:33 33.98299 -117.93365 6924 ft 288 kts 265°
2026-05-07 10:33 33.98088 -117.95762 6598 ft 286 kts 264°
2026-05-07 10:33 33.97859 -117.98126 6271 ft 283 kts 264°
2026-05-07 10:33 33.97627 -118.00467 6002 ft 277 kts 264°
2026-05-07 10:34 33.97396 -118.02737 5756 ft 269 kts 264°
2026-05-07 10:34 33.97165 -118.04947 5455 ft 263 kts 264°
2026-05-07 10:34 33.96942 -118.07091 5140 ft 260 kts 264°
2026-05-07 10:34 33.96723 -118.09237 4797 ft 257 kts 265°
2026-05-07 10:35 33.96505 -118.11361 4439 ft 254 kts 264°
2026-05-07 10:35 33.96289 -118.13463 4097 ft 252 kts 264°
2026-05-07 10:35 33.96075 -118.15542 3771 ft 248 kts 264°
2026-05-07 10:35 33.95869 -118.17551 3470 ft 234 kts 264°
2026-05-07 10:36 33.95675 -118.19442 3176 ft 222 kts 263°
2026-05-07 10:36 33.95492 -118.21224 2904 ft 212 kts 263°
2026-05-07 10:36 33.95312 -118.22971 2635 ft 208 kts 263°
2026-05-07 10:36 33.95137 -118.24673 2366 ft 202 kts 263°
2026-05-07 10:37 33.94966 -118.26334 2084 ft 198 kts 263°
2026-05-07 10:37 33.94800 -118.27951 1821 ft 190 kts 263°
2026-05-07 10:37 33.94643 -118.29478 1575 ft 176 kts 263°
2026-05-07 10:37 33.94498 -118.30888 1344 ft 164 kts 263°
2026-05-07 10:38 33.94363 -118.32203 1127 ft 152 kts 263°
2026-05-07 10:38 33.94228 -118.33429 910 ft 143 kts 261°
2026-05-07 10:38 33.94095 -118.34588 684 ft 136 kts 262°
2026-05-07 10:38 33.93991 -118.35706 505 ft 134 kts 264°
2026-05-07 10:39 33.93879 -118.36823 370 ft 135 kts 262°
2026-05-07 10:39 33.93754 -118.37947 197 ft 136 kts 264°
2026-05-07 10:39 33.93655 -118.39057 101 ft 122 kts 264°
2026-05-07 10:39 33.93578 -118.39825 104 ft 64 kts 263°
2026-05-07 10:40 33.93572 -118.40159 102 ft 31 kts 278°
2026-05-07 10:40 33.93612 -118.40320 102 ft 13 kts 290°
2026-05-07 10:40 33.93624 -118.40437 102 ft 15 kts 262°
2026-05-07 10:40 33.93611 -118.40575 103 ft 17 kts 264°
2026-05-07 10:41 33.93603 -118.40671 100 ft 13 kts 264°
2026-05-07 10:41 33.93594 -118.40791 101 ft 16 kts 272°
2026-05-07 10:41 33.93656 -118.40887 104 ft 16 kts 340°
2026-05-07 10:41 33.93773 -118.40909 101 ft 19 kts 354°
2026-05-07 10:42 33.93806 -118.40914 101 ft 8 kts 352°
2026-05-07 10:42 33.93857 -118.40941 102 ft 3 kts 289°
2026-05-07 10:42 33.93858 -118.41002 101 ft 16 kts 265°
2026-05-07 10:42 33.93850 -118.41081 100 ft 9 kts 264°
2026-05-07 10:43 33.93872 -118.41153 102 ft 10 kts 319°
2026-05-07 10:43 33.93948 -118.41173 100 ft 13 kts 353°
2026-05-07 10:43 33.94046 -118.41187 100 ft 16 kts 354°
2026-05-07 10:43 33.94141 -118.41201 100 ft 12 kts 352°
2026-05-07 10:44 33.94219 -118.41213 101 ft 12 kts 356°
2026-05-07 10:44 33.94241 -118.41205 100 ft 2 kts 39°
2026-05-07 10:44 33.94248 -118.41189 103 ft 3 kts 62°
2026-05-07 10:44 33.94257 -118.41160 101 ft 2 kts 83°
2026-05-07 10:45 33.94259 -118.41138 100 ft 0 kts 82°
2026-05-07 10:45 33.94261 -118.41121 100 ft 0 kts 83°
2026-05-07 10:45 33.94262 -118.41113 99 ft 2 kts 83°
2026-05-07 10:45 33.94263 -118.41104 99 ft 0 kts 83°